[[{"header":{"parameterUnit":"m.s-1","parameterCategory":1,"la1":30.2991,"la2":30.254,"lo1":-89.0895,"lo2":-89.0444,"dy":0.0017,"dx":0.0017,"nx":28,"ny":28,"refTime":"2025-07-29T03:00:00:Z","depth":0,"parameterNumber":2,"parameterNumberName":"U-component_of_WINDS"},"data":[0,0,0,0,0,0,0,0,0,0,0,0,0,0,0,0,0,0,0,0,0,0,0,0,0,0,0,0,0,0,0,0,0,0,0,0,0,0,0,0,0,0,0,0,0,0,0,0,0,0,0,0,0,0,0,0,0,0,2.1982,2.1983,0,2.2073,2.2074,2.2075,2.2005,2.2002,2.1999,2.1996,2.2098,2.2104,2.2109,0,0,0,0,0,0,0,0,0,0,0,0,0,2.1758,2.1762,2.1982,2.1983,2.1984,2.2073,2.2074,2.2075,2.2006,2.2002,2.1998,2.1995,2.2097,2.2103,2.211,0,0,0,0,0,0,0,0,0,0,0,0,0,2.1853,2.1763,2.1982,2.196,2.1959,2.2072,2.2074,2.2076,2.2006,2.2002,2.1997,2.1993,2.2094,2.2102,2.2111,2.2254,0,0,2.2136,2.214,0,0,0,0,0,0,0,0,2.1847,2.1861,2.1962,2.1961,2.196,2.2023,2.2032,2.2136,2.2008,2.1989,2.1996,2.1991,2.2078,2.2087,2.2114,2.2258,2.2263,2.2137,2.2142,2.2146,2.2148,0,0,0,0,0,0,0,2.1841,2.1857,2.2018,2.1963,2.1963,2.1949,2.1957,2.2052,2.2058,2.199,2.1985,2.1996,2.2076,2.2106,2.2116,2.2264,2.2137,2.2144,2.2149,2.2152,2.2534,2.2539,0,0,0,0,0,0,2.1835,2.1852,2.2015,2.2021,2.1891,2.1957,2.1966,2.2008,2.2057,2.2059,2.2,2.1993,2.2094,2.2107,2.212,2.2292,2.2145,2.2153,2.2158,2.2529,2.2535,2.254,0,0,0,0,0,0,2.1831,2.185,2.2011,2.1935,2.1954,2.1965,2.2013,2.2012,2.2042,2.2064,2.2066,2.2029,2.2091,2.2108,2.2221,2.2294,2.2157,2.2165,2.2523,2.253,2.2538,2.2636,0,0,0,0,0,0,2.1824,2.1849,2.1901,2.1936,2.1959,2.2108,2.2017,2.2017,2.2055,2.2046,2.2092,2.2095,2.2089,2.2209,2.2229,2.2303,2.2171,2.2516,2.2526,2.2535,2.2626,2.2646,2.2663,0,0,0,0,0,2.1817,2.1926,2.1904,2.1924,2.2023,2.2113,2.2126,2.2114,2.2061,2.2115,2.213,2.2094,2.2283,2.2221,2.2243,2.2321,2.2511,2.2523,2.2534,2.2618,2.2642,2.2663,0,0,0,0,0,0,2.1901,2.193,2.1906,2.2029,2.2069,2.21,2.2168,2.214,2.2197,2.2186,2.2172,2.2184,2.2302,2.2323,2.2253,2.2464,2.2389,2.2406,2.2445,2.2469,2.2487,2.2479,2.2178,0,0,0,0,0,2.1934,2.2001,2.2024,2.2131,2.2152,2.2157,2.2195,2.2183,2.2224,2.2242,2.2265,2.2309,2.2378,2.2425,2.249,2.2629,2.264,2.2694,2.2713,2.2728,2.2742,2.2821,2.2846,2.2578,2.2578,2.2578,0,0,2.2003,2.2027,2.2071,2.2149,2.2178,2.2251,2.2171,2.2252,2.2307,2.2255,2.2362,2.2381,2.243,2.2558,2.2615,2.2578,2.2819,2.2742,2.2754,2.2761,2.2835,2.286,2.2883,2.2586,2.2585,2.2583,0,0,2.2166,2.219,2.2282,2.2313,2.2357,2.236,2.2383,2.2419,2.2429,2.2536,2.25,2.2567,2.2686,2.2723,2.2758,2.2938,2.2907,2.296,2.3056,2.3133,2.3154,2.3172,2.3238,2.3262,2.2974,2.2975,2.2975,0,2.2246,2.2351,2.2334,2.2418,2.2455,2.2409,2.2505,2.2537,2.2602,2.263,2.2587,2.2738,2.2767,2.2904,2.2948,2.2977,2.3005,2.2954,2.3151,2.317,2.3187,2.325,2.3275,2.2981,2.298,2.2979,2.2979,0,2.245,2.2524,2.2594,2.2655,2.2701,2.279,2.279,2.2839,2.2823,2.2832,2.2944,2.2978,2.305,2.3082,2.3069,2.3218,2.3194,2.3152,2.3077,2.3219,2.3278,2.3302,2.299,2.2987,2.2986,2.2984,0,0,2.2667,2.2718,2.2745,2.2773,2.282,2.2878,2.2968,2.3036,2.3079,2.3126,2.3203,2.3306,2.3268,2.3307,2.3298,2.3365,2.3509,2.3315,2.3316,2.3351,2.3678,2.371,2.3738,2.3489,2.3493,2.3497,2.3675,0,2.2833,2.2984,2.2973,2.3118,2.3188,2.3147,2.3225,2.3265,2.3276,2.334,2.3354,2.3428,2.3371,2.3395,2.3459,2.3477,2.3574,2.3464,2.3563,2.3566,2.3552,2.3768,2.3801,2.3967,2.3697,2.3701,2.3704,0,2.3045,2.3098,2.3249,2.3287,2.3317,2.3387,2.345,2.351,2.3556,2.356,2.3605,2.3585,2.368,2.3603,2.3734,2.366,2.37,2.3715,2.3722,2.3731,2.3644,2.3784,2.402,2.4045,2.374,2.3737,2.3734,0,2.319,2.3299,2.3404,2.343,2.3476,2.3527,2.355,2.359,2.3633,2.369,2.3718,2.3786,2.3824,2.3879,2.3879,2.3823,2.4014,2.3936,2.4022,2.4022,2.4064,2.4061,2.431,2.4089,2.4089,2.4088,2.4088,0,2.3377,2.3471,2.347,2.3534,2.3641,2.3629,2.3735,2.3753,2.379,2.386,2.383,2.3898,2.3894,2.3964,2.3966,2.4076,2.4093,2.4101,2.4101,2.4104,2.4103,2.413,2.4119,2.4095,2.4093,2.4092,2.4091,0,2.3556,2.3558,2.367,2.3706,2.3717,2.3794,2.3826,2.3889,2.3898,2.3988,2.4009,2.4025,2.4105,2.4111,2.4205,2.4206,2.434,2.4327,2.4324,2.4322,2.4408,2.44,2.4683,2.472,2.4475,2.4477,2.4479,0,2.3674,2.3746,2.3789,2.3832,2.3857,2.3928,2.3971,2.3964,2.4011,2.407,2.4127,2.4204,2.4265,2.4396,2.4419,2.4491,2.448,2.4574,2.4491,2.4493,2.4483,2.4478,2.4487,2.459,2.4593,2.4595,2.4597,0,2.3885,2.3884,2.3945,2.4009,2.406,2.4111,2.4158,2.4196,2.4195,2.425,2.433,2.4378,2.4473,2.4552,2.4623,2.465,2.4625,2.4623,2.4647,2.4652,2.4647,2.4652,2.4369,2.4617,2.4615,2.4613,2.4612,2.4612,2.4039,2.4101,2.4141,2.4212,2.4246,2.4291,2.4353,2.437,2.4436,2.4511,2.4504,2.4594,2.4642,2.4734,2.4767,2.484,2.4809,2.4843,2.4852,2.4861,2.487,2.4635,2.4853,2.4853,2.4852,2.4852,2.4852,0,2.4249,2.4273,2.4338,2.4404,2.4461,2.443,2.4481,2.4531,2.461,2.4655,2.4715,2.481,2.4886,2.4915,2.499,2.5044,2.5034,2.5064,2.506,2.5067,2.4893,2.4865,2.507,2.507,2.507,2.507,2.507,2.507,2.4365,2.4469,2.4473,2.4596,2.462,2.4706,2.4738,2.4781,2.4817,2.4923,2.4985,2.5002,2.5042,2.512,2.5191,2.5197,2.5227,2.5262,2.5264,2.5101,2.5079,2.5058,2.5032,2.5268,2.5268,2.5432,2.5433,2.5435]},{"header":{"parameterUnit":"m.s-1","parameterCategory":1,"la1":30.2991,"la2":30.254,"lo1":-89.0895,"lo2":-89.0444,"dy":0.0017,"dx":0.0017,"nx":28,"ny":28,"refTime":"2025-07-29T03:00:00:Z","depth":0,"parameterNumber":3,"parameterNumberName":"V-component_of_WINDS"},"data":[0,0,0,0,0,0,0,0,0,0,0,0,0,0,0,0,0,0,0,0,0,0,0,0,0,0,0,0,0,0,0,0,0,0,0,0,0,0,0,0,0,0,0,0,0,0,0,0,0,0,0,0,0,0,0,0,0,0,0.5009,0.5012,0,0.5206,0.5209,0.5211,0.5167,0.5164,0.516,0.5156,0.5365,0.5374,0.5383,0,0,0,0,0,0,0,0,0,0,0,0,0,0.46,0.4608,0.5009,0.5012,0.5014,0.5206,0.5209,0.5212,0.5168,0.5164,0.5159,0.5155,0.5362,0.5373,0.5384,0,0,0,0,0,0,0,0,0,0,0,0,0,0.4786,0.461,0.5009,0.5015,0.5018,0.5206,0.5209,0.5212,0.5169,0.5163,0.5158,0.5153,0.5359,0.5372,0.5385,0.5581,0,0,0.5427,0.5432,0,0,0,0,0,0,0,0,0.4775,0.4801,0.5012,0.5015,0.5018,0.5156,0.5141,0.5336,0.517,0.5112,0.5156,0.515,0.5301,0.5319,0.5368,0.559,0.5599,0.5428,0.5436,0.5442,0.5446,0,0,0,0,0,0,0,0.4762,0.4792,0.5087,0.5015,0.5019,0.501,0.503,0.5178,0.5236,0.5117,0.5114,0.5137,0.5301,0.5355,0.5373,0.5602,0.5427,0.5439,0.5448,0.5453,0.5993,0.5999,0,0,0,0,0,0,0.4746,0.4782,0.5081,0.5093,0.488,0.5022,0.5045,0.5118,0.5234,0.5246,0.5142,0.5135,0.5335,0.5357,0.538,0.5616,0.5442,0.5454,0.5462,0.5987,0.5995,0.6002,0,0,0,0,0,0,0.4737,0.4773,0.5073,0.4937,0.4974,0.5035,0.5118,0.5125,0.5178,0.5253,0.5263,0.5186,0.5331,0.5361,0.553,0.5623,0.5461,0.5473,0.598,0.599,0.5998,0.609,0,0,0,0,0,0,0.4726,0.477,0.4844,0.4939,0.4982,0.522,0.5123,0.5133,0.5201,0.5193,0.5297,0.5309,0.5329,0.551,0.5544,0.5639,0.5483,0.5972,0.5984,0.5995,0.6079,0.6102,0.6121,0,0,0,0,0,0.4711,0.4864,0.4848,0.4885,0.5075,0.5225,0.525,0.5268,0.5209,0.5284,0.5332,0.5306,0.5606,0.5528,0.5565,0.5666,0.5966,0.5981,0.5994,0.607,0.6097,0.612,0,0,0,0,0,0,0.4782,0.4877,0.486,0.5048,0.5128,0.5217,0.5313,0.5296,0.5397,0.5386,0.5406,0.543,0.5603,0.5651,0.5562,0.586,0.5778,0.58,0.5823,0.5849,0.587,0.5856,0.5495,0,0,0,0,0,0.4819,0.4931,0.5008,0.5166,0.5207,0.5253,0.5319,0.5326,0.5411,0.5445,0.5505,0.5591,0.5704,0.5779,0.5888,0.6085,0.6107,0.6172,0.6192,0.6209,0.6229,0.6336,0.6366,0.6048,0.6047,0.6047,0,0,0.4898,0.4963,0.5033,0.5182,0.5245,0.5362,0.5282,0.541,0.5497,0.5466,0.5629,0.5675,0.5772,0.5955,0.604,0.6001,0.6321,0.6227,0.624,0.6251,0.6354,0.6384,0.6411,0.6057,0.6055,0.6054,0,0,0.5101,0.5161,0.5299,0.5363,0.5458,0.5487,0.552,0.5611,0.564,0.5803,0.5782,0.5886,0.6082,0.6151,0.6212,0.6437,0.6417,0.6472,0.6582,0.6686,0.6711,0.6734,0.6815,0.6844,0.6491,0.6491,0.6491,0,0.5188,0.5361,0.5373,0.5502,0.5568,0.5541,0.5682,0.5744,0.5871,0.5918,0.5872,0.6115,0.6178,0.6377,0.6432,0.6481,0.6521,0.6462,0.6706,0.6729,0.675,0.6828,0.6858,0.6497,0.6497,0.6496,0.6495,0,0.5464,0.5584,0.5684,0.5804,0.5882,0.6016,0.6049,0.6126,0.6125,0.6159,0.6325,0.6399,0.6522,0.6569,0.6571,0.6769,0.6742,0.67,0.6619,0.6786,0.686,0.689,0.6506,0.6504,0.6502,0.6501,0,0,0.5722,0.5843,0.588,0.5934,0.6035,0.613,0.6262,0.6379,0.6445,0.6533,0.6645,0.6809,0.6771,0.684,0.6848,0.6939,0.7114,0.6887,0.689,0.6928,0.7337,0.7369,0.7404,0.7099,0.7105,0.711,0.733,0,0.5935,0.6167,0.618,0.6391,0.6503,0.6477,0.6592,0.6668,0.6702,0.6803,0.6841,0.6958,0.6898,0.6939,0.7028,0.7074,0.7197,0.7058,0.7207,0.7212,0.7186,0.7442,0.7477,0.7681,0.7358,0.7363,0.7367,0,0.6217,0.631,0.6531,0.6615,0.6662,0.6766,0.6874,0.6969,0.7054,0.7072,0.7147,0.7142,0.7279,0.7189,0.7379,0.7284,0.7345,0.7376,0.7384,0.7402,0.7302,0.7468,0.7747,0.7778,0.7412,0.7409,0.7405,0,0.6384,0.6565,0.6721,0.6767,0.6868,0.6942,0.6988,0.7066,0.7135,0.7229,0.7274,0.7384,0.7445,0.753,0.7554,0.7487,0.7743,0.7656,0.7764,0.7764,0.7822,0.7819,0.8117,0.7857,0.7857,0.7856,0.7856,0,0.6624,0.6761,0.6797,0.6893,0.7046,0.7059,0.721,0.7251,0.7321,0.7425,0.7409,0.7508,0.7532,0.7636,0.7656,0.781,0.7837,0.7857,0.7861,0.786,0.7858,0.7903,0.789,0.7865,0.7863,0.7861,0.786,0,0.6838,0.6868,0.7036,0.7116,0.714,0.7249,0.7318,0.7411,0.7441,0.7574,0.7606,0.7655,0.7775,0.7807,0.7952,0.7965,0.8147,0.8136,0.8118,0.8118,0.8225,0.8215,0.8565,0.8612,0.8319,0.8322,0.8324,0,0.699,0.7095,0.7185,0.7253,0.7301,0.741,0.748,0.7496,0.7569,0.7671,0.7752,0.7869,0.7965,0.8159,0.8209,0.8319,0.8313,0.8427,0.833,0.8325,0.8316,0.8311,0.8322,0.8447,0.845,0.8453,0.8455,0,0.7257,0.7266,0.7365,0.747,0.7552,0.7636,0.7716,0.7773,0.78,0.7883,0.8004,0.8078,0.8224,0.8342,0.8453,0.8501,0.8484,0.8484,0.8515,0.8517,0.8502,0.8513,0.8171,0.8477,0.8475,0.8473,0.8472,0.8471,0.7447,0.7538,0.7615,0.7727,0.7787,0.7862,0.7952,0.7992,0.8094,0.8213,0.8215,0.8348,0.8428,0.8574,0.8628,0.8733,0.8699,0.8744,0.8756,0.8767,0.8777,0.8483,0.8753,0.8752,0.8752,0.8751,0.8751,0,0.7715,0.7762,0.7864,0.7975,0.8062,0.8033,0.812,0.8195,0.8311,0.8386,0.8479,0.8619,0.8732,0.8788,0.8901,0.8973,0.8968,0.9003,0.8999,0.9011,0.8801,0.8763,0.9005,0.9005,0.9005,0.9005,0.9005,0.9005,0.7864,0.8017,0.8034,0.8217,0.8263,0.8392,0.8443,0.8512,0.8572,0.8727,0.882,0.8855,0.8923,0.9039,0.9142,0.9155,0.9198,0.9238,0.9247,0.9051,0.9025,0.9001,0.8966,0.9246,0.9247,0.9449,0.9451,0.9452]}]]